Find Kosmos-712

NORAD ID: 7679 Int'l Des: 1975-016 Owner: GUKOSR Country: SU operational
LEOCIRCULAR

リアルタイム位置

3D地球を読み込み中...

Kosmos-712について

説明を読み込み中...

次回通過

Passes for default location (London). Set your location on the main map for personalized predictions.

高度履歴

Loading altitude history...

軌道要素

1 07679U 75016B 26135.23853289 .00000012 00000-0 17582-3 0 9994
2 07679 74.0014 166.4441 0050657 323.2341 111.6068 12.53465002343128
Epoch: May 15, 2026 • Age: 23 hours

現在のステータス

高度 1492.3 km
速度 7.11 km/s
衛星直下点 70.04°N, 13.32°W
タイプ other

Most Searched